Regional Weather Roundup
Issued by NWS

Home | Current Version | Previous Version | Graphics & Text | Print | Product List | Glossary On
Versions: 1 2 3 4 5 6 7 8 9 10 11 12 13 14 15 16 17 18 19 20 21 22 23 24 25 26 27
000
ASUS45 KBOU 182007
RWRCO

WEATHER ROUNDUP FOR COLORADO
NATIONAL WEATHER SERVICE DENVER/BOULDER CO
100 PM MST WED JAN 18 2017

NOTE: "FAIR" INDICATES FEW OR NO CLOUDS BELOW 12000 FEET WITH NO
SIGNIFICANT WEATHER AND/OR OBSTRUCTIONS TO VISIBILITY.

COZ001>005-013-030-031-182100-
...NORTHWEST COLORADO...

CITY           SKY/WX    TMP DP  RH WIND       PRES   REMARKS
CRAIG          FOG       15  11  83 CALM      30.07F VSB 1/2
HAYDEN         FAIR      19  12  73 CALM      30.04F
MEEKER         FAIR      28  18  66 CALM      30.03F
MOUNT WERNER   NOT AVBL
STEAMBOAT SPGS FAIR      19  16  88 CALM      30.03F
WALDEN           N/A    N/A N/A N/A CALM      30.02F
$$

COZ006>008-011-182100-
...WEST CENTRAL VALLEYS...

CITY           SKY/WX    TMP DP  RH WIND       PRES   REMARKS
GRAND JUNCTION PTSUNNY   39  30  70 NW6       30.07F
MONTROSE       FAIR      42  26  53 VRB5      30.07F
EAGLE          SUNNY     30  19  64 CALM      30.08F
RIFLE          FAIR      39  21  48 CALM      30.05F
DELTA          FAIR      46  26  46 CALM      30.06F
NUCLA          NOT AVBL
$$

COZ017>023-064>068-182100-
...SOUTHWEST COLORADO...

CITY           SKY/WX    TMP DP  RH WIND       PRES   REMARKS
DURANGO        CLOUDY    37  29  72 SW7       30.03F
CORTEZ         FAIR      42  30  62 W13       30.06F
PAGOSA SPRINGS CLOUDY    35  26  68 SW3       30.04F
TELLURIDE      FAIR      33  17  53 CALM      30.06F
WOLF CREEK PAS CLOUDY    19  19 100 SW8       30.06F WCI   9
$$

COZ009-010-012-014-032>034-037-058>063-182100-
...CENTRAL COLORADO...

CITY           SKY/WX    TMP DP  RH WIND       PRES   REMARKS
ASPEN          FAIR      32  14  47 CALM      30.02F
BUENA VISTA    FAIR      28  14  57 W5        29.94F WCI  22
COPPER MTN     NOT AVBL
BERTHOUD PASS  NOT AVBL
COTTONWOOD PAS FAIR      36  12  38 CALM      29.94F
GUNNISON       FAIR      25  17  72 SE6       30.06F WCI  18
KREMMLING      FAIR      27  16  63 CALM      30.08F
LEADVILLE      FAIR      34   7  32 NW16G25   29.95F WCI  24
MONARCH PASS   FOG       18  16  93 MISG      30.10F VSB<1/4
SALIDA         FAIR      39  19  44 CALM      30.00F
SUNLIGHT       FAIR      23  18  80 W5        30.06F WCI  17
WILKERSON PASS FAIR      34 -15  12 NE3       30.00F
$$

COZ069>075-182100-
...SAN LUIS VALLEY/SANGRE DE CRISTO MOUNTAINS...

CITY           SKY/WX    TMP DP  RH WIND       PRES   REMARKS
ALAMOSA        CLOUDY    28  23  81 CALM      30.01F
LA VETA PASS   FOG       23  19  86 MISG      29.95F VSB 1
SAGUACHE       FAIR      32  18  55 CALM      30.01F
$$

COZ035-036-038>040-182100-
...NORTHERN COLORADO FRONT RANGE...

CITY           SKY/WX    TMP DP  RH WIND       PRES   REMARKS
DENVER INTL AP FAIR      48  20  32 S7        29.81F
DMNS CITY PARK   N/A     53   7  16 SE6       29.80F
AURORA         MOSUNNY   51  14  23 S6        29.82F
FRONT RANGE AP MOSUNNY   52  18  25 SE3       29.83F
ERIE MUNI ARPT FAIR      49  15  25 CALM      29.81F
BOULDER MUN AP FAIR      50  19  29 CALM      29.80F
CENTENNIAL     FAIR      48  17  29 SE5       29.82F
BROOMFIELD     MOSUNNY   48  16  27 VRB3      29.82F
FORT COLLINS   FAIR      48  18  29 S8        29.81F
LONGMONT       FAIR      51  15  24 CALM      29.83F
$$

COZ041-046-047-076>085-087-088-182100-
...PIKES PEAK/PALMER DIVIDE AND SOUTHERN FOOTHILLS...

CITY           SKY/WX    TMP DP  RH WIND       PRES   REMARKS
COLO. SPRINGS  PTSUNNY   52   0  12 E9        29.85F
A. F. ACADEMY  FAIR      51  -9   8 SE3       29.84F
SCHRIEVER AFB  NOT AVBL
ELLICOTT       FAIR     N/A N/A N/A E8        29.84F
FALCON         FAIR      50   2  14 SE5       29.87F
FORT CARSON    MOSUNNY   50  21  32 S8G16     29.85F
LIMON          FAIR      49  13  23 E5        29.84F
MONUMENT HILL  FAIR      45   3  18 CALM      29.87F
TRINIDAD       FAIR      37  26  64 CALM      29.86F
$$

COZ042>045-048>051-090-091-182100-
...NORTHEAST COLORADO...

CITY           SKY/WX    TMP DP  RH WIND       PRES   REMARKS
GREELEY ARPT   FAIR      47  27  45 SW5       29.82
AKRON          FAIR      43  24  47 SW8       29.82F
BURLINGTON     FAIR      45  26  47 CALM      29.85F
WRAY           NOT AVBL
STERLING       FAIR      39  32  75 S9        29.81F
HOLYOKE        FAIR      46  32  57 SW6       29.82F
FORT MORGAN    FAIR      44  25  46 SW5       29.82F
$$

COZ086-089-092>099-182100-
...SOUTHEAST COLORADO...

CITY           SKY/WX    TMP DP  RH WIND       PRES   REMARKS
PUEBLO         FAIR      49  31  49 E5        29.84F
LA JUNTA       FAIR      35  28  75 SW8       29.86F WCI  29
LAMAR          FAIR      35  28  75 SW5       29.87F WCI  31
SPRINGFIELD      N/A     47  36  65 S8        29.86F
$$




USA.gov is the U.S. government's official web portal to all federal, state and local government web resources and services.